owner,sensor,date,latitude,longitude,relative_humidity,qcFlag 
COMPS,ioos:station:USF.COMPS:TAR:1,2014-12-01T00:00:00Z,28.1560,-82.7580,79.48,1111122 
COMPS,ioos:station:USF.COMPS:TAR:1,2014-12-01T00:06:00Z,28.1560,-82.7580,79.59,1111122 
COMPS,ioos:station:USF.COMPS:TAR:1,2014-12-01T00:12:00Z,28.1560,-82.7580,79.82,1111122 
COMPS,ioos:station:USF.COMPS:TAR:1,2014-12-01T00:18:00Z,28.1560,-82.7580,80.13,1111122 
COMPS,ioos:station:USF.COMPS:TAR:1,2014-12-01T00:24:00Z,28.1560,-82.7580,81.09,1111122 
COMPS,ioos:station:USF.COMPS:TAR:1,2014-12-01T00:30:00Z,28.1560,-82.7580,81.78,1111122 
COMPS,ioos:station:USF.COMPS:TAR:1,2014-12-01T00:36:00Z,28.1560,-82.7580,81.96,1111122 
COMPS,ioos:station:USF.COMPS:TAR:1,2014-12-01T00:42:00Z,28.1560,-82.7580,82.69,1111122 
COMPS,ioos:station:USF.COMPS:TAR:1,2014-12-01T00:48:00Z,28.1560,-82.7580,81.93,1111122 
COMPS,ioos:station:USF.COMPS:TAR:1,2014-12-01T00:54:00Z,28.1560,-82.7580,81.28,1111122 
COMPS,ioos:station:USF.COMPS:TAR:1,2014-12-01T01:00:00Z,28.1560,-82.7580,81.05,1111122 
COMPS,ioos:station:USF.COMPS:TAR:1,2014-12-01T01:06:00Z,28.1560,-82.7580,81.07,1111122 
COMPS,ioos:station:USF.COMPS:TAR:1,2014-12-01T01:12:00Z,28.1560,-82.7580,81.22,1111122 
COMPS,ioos:station:USF.COMPS:TAR:1,2014-12-01T01:18:00Z,28.1560,-82.7580,81.46,1111122 
COMPS,ioos:station:USF.COMPS:TAR:1,2014-12-01T01:24:00Z,28.1560,-82.7580,82.09,1111122 
COMPS,ioos:station:USF.COMPS:TAR:1,2014-12-01T01:30:00Z,28.1560,-82.7580,82.73,1111122 
COMPS,ioos:station:USF.COMPS:TAR:1,2014-12-01T01:36:00Z,28.1560,-82.7580,82.82,1111122 
COMPS,ioos:station:USF.COMPS:TAR:1,2014-12-01T01:42:00Z,28.1560,-82.7580,82.81,1111122 
COMPS,ioos:station:USF.COMPS:TAR:1,2014-12-01T01:48:00Z,28.1560,-82.7580,82.94,1111122 
COMPS,ioos:station:USF.COMPS:TAR:1,2014-12-01T01:54:00Z,28.1560,-82.7580,83.03,1111122 
COMPS,ioos:station:USF.COMPS:TAR:1,2014-12-01T02:00:00Z,28.1560,-82.7580,82.92,1111122 
COMPS,ioos:station:USF.COMPS:TAR:1,2014-12-01T02:06:00Z,28.1560,-82.7580,83.08,1111122 
COMPS,ioos:station:USF.COMPS:TAR:1,2014-12-01T02:12:00Z,28.1560,-82.7580,83.25,1111122 
COMPS,ioos:station:USF.COMPS:TAR:1,2014-12-01T02:18:00Z,28.1560,-82.7580,83.42,1111122 
COMPS,ioos:station:USF.COMPS:TAR:1,2014-12-01T02:24:00Z,28.1560,-82.7580,83.44,1111122 
COMPS,ioos:station:USF.COMPS:TAR:1,2014-12-01T02:30:00Z,28.1560,-82.7580,83.5,1111122 
COMPS,ioos:station:USF.COMPS:TAR:1,2014-12-01T02:36:00Z,28.1560,-82.7580,83.44,1111122 
COMPS,ioos:station:USF.COMPS:TAR:1,2014-12-01T02:42:00Z,28.1560,-82.7580,83.64,1111122 
COMPS,ioos:station:USF.COMPS:TAR:1,2014-12-01T02:48:00Z,28.1560,-82.7580,84.0,1111122 
COMPS,ioos:station:USF.COMPS:TAR:1,2014-12-01T02:54:00Z,28.1560,-82.7580,83.99,1111122 
COMPS,ioos:station:USF.COMPS:TAR:1,2014-12-01T03:00:00Z,28.1560,-82.7580,83.76,1111122 
COMPS,ioos:station:USF.COMPS:TAR:1,2014-12-01T03:06:00Z,28.1560,-82.7580,83.38,1111122 
COMPS,ioos:station:USF.COMPS:TAR:1,2014-12-01T03:12:00Z,28.1560,-82.7580,83.01,1111122 
COMPS,ioos:station:USF.COMPS:TAR:1,2014-12-01T03:18:00Z,28.1560,-82.7580,82.85,1111122 
COMPS,ioos:station:USF.COMPS:TAR:1,2014-12-01T03:24:00Z,28.1560,-82.7580,82.75,1111122 
COMPS,ioos:station:USF.COMPS:TAR:1,2014-12-01T03:30:00Z,28.1560,-82.7580,82.71,1111122 
COMPS,ioos:station:USF.COMPS:TAR:1,2014-12-01T03:36:00Z,28.1560,-82.7580,82.96,1111122 
COMPS,ioos:station:USF.COMPS:TAR:1,2014-12-01T03:42:00Z,28.1560,-82.7580,83.25,1111122 
COMPS,ioos:station:USF.COMPS:TAR:1,2014-12-01T03:48:00Z,28.1560,-82.7580,83.64,1111122 
COMPS,ioos:station:USF.COMPS:TAR:1,2014-12-01T03:54:00Z,28.1560,-82.7580,83.84,1111122 
COMPS,ioos:station:USF.COMPS:TAR:1,2014-12-01T04:00:00Z,28.1560,-82.7580,83.96,1111122 
COMPS,ioos:station:USF.COMPS:TAR:1,2014-12-01T04:06:00Z,28.1560,-82.7580,84.44,1111122 
COMPS,ioos:station:USF.COMPS:TAR:1,2014-12-01T04:12:00Z,28.1560,-82.7580,84.89,1111122 
COMPS,ioos:station:USF.COMPS:TAR:1,2014-12-01T04:18:00Z,28.1560,-82.7580,85.76,1111122 
COMPS,ioos:station:USF.COMPS:TAR:1,2014-12-01T04:24:00Z,28.1560,-82.7580,86.21,1111122 
COMPS,ioos:station:USF.COMPS:TAR:1,2014-12-01T04:30:00Z,28.1560,-82.7580,86.54,1111122 
COMPS,ioos:station:USF.COMPS:TAR:1,2014-12-01T04:36:00Z,28.1560,-82.7580,86.84,1111122 
COMPS,ioos:station:USF.COMPS:TAR:1,2014-12-01T04:42:00Z,28.1560,-82.7580,87.43,1111122 
COMPS,ioos:station:USF.COMPS:TAR:1,2014-12-01T04:48:00Z,28.1560,-82.7580,88.11,1111122 
COMPS,ioos:station:USF.COMPS:TAR:1,2014-12-01T04:54:00Z,28.1560,-82.7580,88.26,1111122 
COMPS,ioos:station:USF.COMPS:TAR:1,2014-12-01T05:00:00Z,28.1560,-82.7580,88.38,1111122 
COMPS,ioos:station:USF.COMPS:TAR:1,2014-12-01T05:06:00Z,28.1560,-82.7580,88.2,1111122 
COMPS,ioos:station:USF.COMPS:TAR:1,2014-12-01T05:12:00Z,28.1560,-82.7580,88.39,1111122 
COMPS,ioos:station:USF.COMPS:TAR:1,2014-12-01T05:18:00Z,28.1560,-82.7580,88.92,1111122 
COMPS,ioos:station:USF.COMPS:TAR:1,2014-12-01T05:24:00Z,28.1560,-82.7580,89.49,1111122 
COMPS,ioos:station:USF.COMPS:TAR:1,2014-12-01T05:30:00Z,28.1560,-82.7580,89.24,1111122 
COMPS,ioos:station:USF.COMPS:TAR:1,2014-12-01T05:36:00Z,28.1560,-82.7580,89.38,1111122 
COMPS,ioos:station:USF.COMPS:TAR:1,2014-12-01T05:42:00Z,28.1560,-82.7580,89.55,1111122 
COMPS,ioos:station:USF.COMPS:TAR:1,2014-12-01T05:48:00Z,28.1560,-82.7580,89.5,1111122 
COMPS,ioos:station:USF.COMPS:TAR:1,2014-12-01T05:54:00Z,28.1560,-82.7580,89.43,1111122 
COMPS,ioos:station:USF.COMPS:TAR:1,2014-12-01T06:00:00Z,28.1560,-82.7580,89.6,1111122 
COMPS,ioos:station:USF.COMPS:TAR:1,2014-12-01T06:06:00Z,28.1560,-82.7580,89.58,1111122 
COMPS,ioos:station:USF.COMPS:TAR:1,2014-12-01T06:12:00Z,28.1560,-82.7580,89.85,1111122 
COMPS,ioos:station:USF.COMPS:TAR:1,2014-12-01T06:18:00Z,28.1560,-82.7580,89.93,1111122 
COMPS,ioos:station:USF.COMPS:TAR:1,2014-12-01T06:24:00Z,28.1560,-82.7580,90.09,1111122 
COMPS,ioos:station:USF.COMPS:TAR:1,2014-12-01T06:30:00Z,28.1560,-82.7580,90.24,1111122 
COMPS,ioos:station:USF.COMPS:TAR:1,2014-12-01T06:36:00Z,28.1560,-82.7580,90.44,1111122 
COMPS,ioos:station:USF.COMPS:TAR:1,2014-12-01T06:42:00Z,28.1560,-82.7580,90.6,1111122 
COMPS,ioos:station:USF.COMPS:TAR:1,2014-12-01T06:48:00Z,28.1560,-82.7580,90.62,1111122 
COMPS,ioos:station:USF.COMPS:TAR:1,2014-12-01T06:54:00Z,28.1560,-82.7580,90.48,1111122 
COMPS,ioos:station:USF.COMPS:TAR:1,2014-12-01T07:00:00Z,28.1560,-82.7580,90.13,1111122 
COMPS,ioos:station:USF.COMPS:TAR:1,2014-12-01T07:06:00Z,28.1560,-82.7580,89.93,1111122 
COMPS,ioos:station:USF.COMPS:TAR:1,2014-12-01T07:12:00Z,28.1560,-82.7580,90.13,1111122 
COMPS,ioos:station:USF.COMPS:TAR:1,2014-12-01T07:18:00Z,28.1560,-82.7580,90.31,1111122 
COMPS,ioos:station:USF.COMPS:TAR:1,2014-12-01T07:24:00Z,28.1560,-82.7580,90.36,1111122 
COMPS,ioos:station:USF.COMPS:TAR:1,2014-12-01T07:30:00Z,28.1560,-82.7580,90.41,1111122 
COMPS,ioos:station:USF.COMPS:TAR:1,2014-12-01T07:36:00Z,28.1560,-82.7580,90.7,1111122 
COMPS,ioos:station:USF.COMPS:TAR:1,2014-12-01T07:42:00Z,28.1560,-82.7580,90.93,1111122 
COMPS,ioos:station:USF.COMPS:TAR:1,2014-12-01T07:48:00Z,28.1560,-82.7580,90.84,1111122 
COMPS,ioos:station:USF.COMPS:TAR:1,2014-12-01T07:54:00Z,28.1560,-82.7580,90.86,1111122 
COMPS,ioos:station:USF.COMPS:TAR:1,2014-12-01T08:00:00Z,28.1560,-82.7580,91.01,1111122 
COMPS,ioos:station:USF.COMPS:TAR:1,2014-12-01T08:06:00Z,28.1560,-82.7580,91.21,1111122 
COMPS,ioos:station:USF.COMPS:TAR:1,2014-12-01T08:12:00Z,28.1560,-82.7580,91.31,1111122 
COMPS,ioos:station:USF.COMPS:TAR:1,2014-12-01T08:18:00Z,28.1560,-82.7580,91.36,1111122 
COMPS,ioos:station:USF.COMPS:TAR:1,2014-12-01T08:24:00Z,28.1560,-82.7580,91.41,1111122 
COMPS,ioos:station:USF.COMPS:TAR:1,2014-12-01T08:30:00Z,28.1560,-82.7580,91.63,1111122 
COMPS,ioos:station:USF.COMPS:TAR:1,2014-12-01T08:36:00Z,28.1560,-82.7580,91.71,1111122 
COMPS,ioos:station:USF.COMPS:TAR:1,2014-12-01T08:42:00Z,28.1560,-82.7580,91.78,1111122 
COMPS,ioos:station:USF.COMPS:TAR:1,2014-12-01T08:48:00Z,28.1560,-82.7580,91.98,1111122 
COMPS,ioos:station:USF.COMPS:TAR:1,2014-12-01T08:54:00Z,28.1560,-82.7580,92.32,1111122 
COMPS,ioos:station:USF.COMPS:TAR:1,2014-12-01T09:00:00Z,28.1560,-82.7580,92.62,1111122 
COMPS,ioos:station:USF.COMPS:TAR:1,2014-12-01T09:06:00Z,28.1560,-82.7580,92.68,1111122 
COMPS,ioos:station:USF.COMPS:TAR:1,2014-12-01T09:12:00Z,28.1560,-82.7580,92.84,1111122 
COMPS,ioos:station:USF.COMPS:TAR:1,2014-12-01T09:18:00Z,28.1560,-82.7580,92.94,1111122 
COMPS,ioos:station:USF.COMPS:TAR:1,2014-12-01T09:24:00Z,28.1560,-82.7580,93.05,1111122 
COMPS,ioos:station:USF.COMPS:TAR:1,2014-12-01T09:30:00Z,28.1560,-82.7580,93.14,1111122 
COMPS,ioos:station:USF.COMPS:TAR:1,2014-12-01T09:36:00Z,28.1560,-82.7580,93.17,1111122 
COMPS,ioos:station:USF.COMPS:TAR:1,2014-12-01T09:42:00Z,28.1560,-82.7580,93.12,1111122 
COMPS,ioos:station:USF.COMPS:TAR:1,2014-12-01T09:48:00Z,28.1560,-82.7580,92.97,1111122 
COMPS,ioos:station:USF.COMPS:TAR:1,2014-12-01T09:54:00Z,28.1560,-82.7580,92.78,1111122 
COMPS,ioos:station:USF.COMPS:TAR:1,2014-12-01T10:00:00Z,28.1560,-82.7580,92.74,1111122 
COMPS,ioos:station:USF.COMPS:TAR:1,2014-12-01T10:06:00Z,28.1560,-82.7580,92.68,1111122 
COMPS,ioos:station:USF.COMPS:TAR:1,2014-12-01T10:12:00Z,28.1560,-82.7580,92.51,1111122 
COMPS,ioos:station:USF.COMPS:TAR:1,2014-12-01T10:18:00Z,28.1560,-82.7580,92.41,1111122 
COMPS,ioos:station:USF.COMPS:TAR:1,2014-12-01T10:24:00Z,28.1560,-82.7580,92.28,1111122 
COMPS,ioos:station:USF.COMPS:TAR:1,2014-12-01T10:30:00Z,28.1560,-82.7580,92.11,1111122 
COMPS,ioos:station:USF.COMPS:TAR:1,2014-12-01T10:36:00Z,28.1560,-82.7580,92.04,1111122 
COMPS,ioos:station:USF.COMPS:TAR:1,2014-12-01T10:42:00Z,28.1560,-82.7580,91.99,1111122 
COMPS,ioos:station:USF.COMPS:TAR:1,2014-12-01T10:48:00Z,28.1560,-82.7580,91.84,1111122 
COMPS,ioos:station:USF.COMPS:TAR:1,2014-12-01T10:54:00Z,28.1560,-82.7580,91.7,1111122 
COMPS,ioos:station:USF.COMPS:TAR:1,2014-12-01T11:00:00Z,28.1560,-82.7580,91.7,1111122 
COMPS,ioos:station:USF.COMPS:TAR:1,2014-12-01T11:06:00Z,28.1560,-82.7580,91.76,1111122 
COMPS,ioos:station:USF.COMPS:TAR:1,2014-12-01T11:12:00Z,28.1560,-82.7580,91.85,1111122 
COMPS,ioos:station:USF.COMPS:TAR:1,2014-12-01T11:18:00Z,28.1560,-82.7580,92.09,1111122 
COMPS,ioos:station:USF.COMPS:TAR:1,2014-12-01T11:24:00Z,28.1560,-82.7580,92.26,1111122 
COMPS,ioos:station:USF.COMPS:TAR:1,2014-12-01T11:30:00Z,28.1560,-82.7580,92.27,1111122 
COMPS,ioos:station:USF.COMPS:TAR:1,2014-12-01T11:36:00Z,28.1560,-82.7580,92.4,1111122 
COMPS,ioos:station:USF.COMPS:TAR:1,2014-12-01T11:42:00Z,28.1560,-82.7580,92.42,1111122 
COMPS,ioos:station:USF.COMPS:TAR:1,2014-12-01T11:48:00Z,28.1560,-82.7580,92.55,1111122 
COMPS,ioos:station:USF.COMPS:TAR:1,2014-12-01T11:54:00Z,28.1560,-82.7580,92.67,1111122 
COMPS,ioos:station:USF.COMPS:TAR:1,2014-12-01T12:00:00Z,28.1560,-82.7580,92.8,1111122 
COMPS,ioos:station:USF.COMPS:TAR:1,2014-12-01T12:06:00Z,28.1560,-82.7580,92.71,1111122 
COMPS,ioos:station:USF.COMPS:TAR:1,2014-12-01T12:12:00Z,28.1560,-82.7580,92.71,1111122 
COMPS,ioos:station:USF.COMPS:TAR:1,2014-12-01T12:18:00Z,28.1560,-82.7580,92.91,1111122 
COMPS,ioos:station:USF.COMPS:TAR:1,2014-12-01T12:24:00Z,28.1560,-82.7580,93.16,1111122 
COMPS,ioos:station:USF.COMPS:TAR:1,2014-12-01T12:30:00Z,28.1560,-82.7580,93.02,1111122 
COMPS,ioos:station:USF.COMPS:TAR:1,2014-12-01T12:36:00Z,28.1560,-82.7580,92.51,1111122 
COMPS,ioos:station:USF.COMPS:TAR:1,2014-12-01T12:42:00Z,28.1560,-82.7580,91.44,1111122 
COMPS,ioos:station:USF.COMPS:TAR:1,2014-12-01T12:48:00Z,28.1560,-82.7580,90.24,1111122 
COMPS,ioos:station:USF.COMPS:TAR:1,2014-12-01T12:54:00Z,28.1560,-82.7580,88.73,1111122 
COMPS,ioos:station:USF.COMPS:TAR:1,2014-12-01T13:00:00Z,28.1560,-82.7580,87.1,1111122 
COMPS,ioos:station:USF.COMPS:TAR:1,2014-12-01T13:06:00Z,28.1560,-82.7580,85.41,1111122 
COMPS,ioos:station:USF.COMPS:TAR:1,2014-12-01T13:12:00Z,28.1560,-82.7580,83.67,1111122 
COMPS,ioos:station:USF.COMPS:TAR:1,2014-12-01T13:18:00Z,28.1560,-82.7580,82.15,1111122 
COMPS,ioos:station:USF.COMPS:TAR:1,2014-12-01T13:24:00Z,28.1560,-82.7580,80.55,1111122 
COMPS,ioos:station:USF.COMPS:TAR:1,2014-12-01T13:30:00Z,28.1560,-82.7580,79.17,1111122 
COMPS,ioos:station:USF.COMPS:TAR:1,2014-12-01T13:36:00Z,28.1560,-82.7580,77.95,1111122 
COMPS,ioos:station:USF.COMPS:TAR:1,2014-12-01T13:42:00Z,28.1560,-82.7580,77.67,1111122 
COMPS,ioos:station:USF.COMPS:TAR:1,2014-12-01T13:48:00Z,28.1560,-82.7580,77.19,1111122 
COMPS,ioos:station:USF.COMPS:TAR:1,2014-12-01T13:54:00Z,28.1560,-82.7580,77.66,1111122 
COMPS,ioos:station:USF.COMPS:TAR:1,2014-12-01T14:00:00Z,28.1560,-82.7580,77.52,1111122 
COMPS,ioos:station:USF.COMPS:TAR:1,2014-12-01T14:06:00Z,28.1560,-82.7580,76.68,1111122 
COMPS,ioos:station:USF.COMPS:TAR:1,2014-12-01T14:12:00Z,28.1560,-82.7580,75.17,1111122 
COMPS,ioos:station:USF.COMPS:TAR:1,2014-12-01T14:18:00Z,28.1560,-82.7580,73.54,1111122 
COMPS,ioos:station:USF.COMPS:TAR:1,2014-12-01T14:24:00Z,28.1560,-82.7580,72.63,1111122 
COMPS,ioos:station:USF.COMPS:TAR:1,2014-12-01T14:30:00Z,28.1560,-82.7580,71.35,1111122 
COMPS,ioos:station:USF.COMPS:TAR:1,2014-12-01T14:36:00Z,28.1560,-82.7580,70.32,1111122 
COMPS,ioos:station:USF.COMPS:TAR:1,2014-12-01T14:42:00Z,28.1560,-82.7580,68.85,1111122 
COMPS,ioos:station:USF.COMPS:TAR:1,2014-12-01T14:48:00Z,28.1560,-82.7580,67.07,1111122 
COMPS,ioos:station:USF.COMPS:TAR:1,2014-12-01T14:54:00Z,28.1560,-82.7580,65.49,1111122 
COMPS,ioos:station:USF.COMPS:TAR:1,2014-12-01T15:00:00Z,28.1560,-82.7580,63.99,1111122 
COMPS,ioos:station:USF.COMPS:TAR:1,2014-12-01T15:06:00Z,28.1560,-82.7580,63.21,1111122 
COMPS,ioos:station:USF.COMPS:TAR:1,2014-12-01T15:12:00Z,28.1560,-82.7580,61.38,1111122 
COMPS,ioos:station:USF.COMPS:TAR:1,2014-12-01T15:18:00Z,28.1560,-82.7580,60.49,1111122 
COMPS,ioos:station:USF.COMPS:TAR:1,2014-12-01T15:24:00Z,28.1560,-82.7580,60.35,1111122 
COMPS,ioos:station:USF.COMPS:TAR:1,2014-12-01T15:30:00Z,28.1560,-82.7580,60.02,1111122 
COMPS,ioos:station:USF.COMPS:TAR:1,2014-12-01T15:36:00Z,28.1560,-82.7580,59.98,1111122 
COMPS,ioos:station:USF.COMPS:TAR:1,2014-12-01T15:42:00Z,28.1560,-82.7580,59.33,1111122 
COMPS,ioos:station:USF.COMPS:TAR:1,2014-12-01T15:48:00Z,28.1560,-82.7580,58.52,1111122 
COMPS,ioos:station:USF.COMPS:TAR:1,2014-12-01T15:54:00Z,28.1560,-82.7580,57.39,1111122 
COMPS,ioos:station:USF.COMPS:TAR:1,2014-12-01T16:00:00Z,28.1560,-82.7580,57.25,1111122 
COMPS,ioos:station:USF.COMPS:TAR:1,2014-12-01T16:06:00Z,28.1560,-82.7580,57.26,1111122 
COMPS,ioos:station:USF.COMPS:TAR:1,2014-12-01T16:12:00Z,28.1560,-82.7580,56.89,1111122 
COMPS,ioos:station:USF.COMPS:TAR:1,2014-12-01T16:18:00Z,28.1560,-82.7580,55.65,1111122 
COMPS,ioos:station:USF.COMPS:TAR:1,2014-12-01T16:24:00Z,28.1560,-82.7580,54.88,1111122 
COMPS,ioos:station:USF.COMPS:TAR:1,2014-12-01T16:30:00Z,28.1560,-82.7580,55.44,1111122 
COMPS,ioos:station:USF.COMPS:TAR:1,2014-12-01T16:36:00Z,28.1560,-82.7580,55.59,1111122 
COMPS,ioos:station:USF.COMPS:TAR:1,2014-12-01T16:42:00Z,28.1560,-82.7580,55.07,1111122 
COMPS,ioos:station:USF.COMPS:TAR:1,2014-12-01T16:48:00Z,28.1560,-82.7580,54.34,1111122 
COMPS,ioos:station:USF.COMPS:TAR:1,2014-12-01T16:54:00Z,28.1560,-82.7580,53.41,1111122 
COMPS,ioos:station:USF.COMPS:TAR:1,2014-12-01T17:00:00Z,28.1560,-82.7580,53.1,1111122 
COMPS,ioos:station:USF.COMPS:TAR:1,2014-12-01T17:06:00Z,28.1560,-82.7580,53.11,1111122 
COMPS,ioos:station:USF.COMPS:TAR:1,2014-12-01T17:12:00Z,28.1560,-82.7580,51.95,1111122 
COMPS,ioos:station:USF.COMPS:TAR:1,2014-12-01T17:18:00Z,28.1560,-82.7580,52.21,1111122 
COMPS,ioos:station:USF.COMPS:TAR:1,2014-12-01T17:24:00Z,28.1560,-82.7580,53.02,1111122 
COMPS,ioos:station:USF.COMPS:TAR:1,2014-12-01T17:30:00Z,28.1560,-82.7580,53.66,1111122 
COMPS,ioos:station:USF.COMPS:TAR:1,2014-12-01T17:36:00Z,28.1560,-82.7580,54.81,1111122 
COMPS,ioos:station:USF.COMPS:TAR:1,2014-12-01T17:42:00Z,28.1560,-82.7580,54.8,1111122 
COMPS,ioos:station:USF.COMPS:TAR:1,2014-12-01T17:48:00Z,28.1560,-82.7580,55.26,1111122 
COMPS,ioos:station:USF.COMPS:TAR:1,2014-12-01T17:54:00Z,28.1560,-82.7580,55.78,1111122 
COMPS,ioos:station:USF.COMPS:TAR:1,2014-12-01T18:00:00Z,28.1560,-82.7580,55.65,1111122 
COMPS,ioos:station:USF.COMPS:TAR:1,2014-12-01T18:06:00Z,28.1560,-82.7580,55.83,1111122 
COMPS,ioos:station:USF.COMPS:TAR:1,2014-12-01T18:12:00Z,28.1560,-82.7580,55.68,1111122 
COMPS,ioos:station:USF.COMPS:TAR:1,2014-12-01T18:18:00Z,28.1560,-82.7580,56.19,1111122 
COMPS,ioos:station:USF.COMPS:TAR:1,2014-12-01T18:24:00Z,28.1560,-82.7580,56.14,1111122 
COMPS,ioos:station:USF.COMPS:TAR:1,2014-12-01T18:30:00Z,28.1560,-82.7580,56.8,1111122 
COMPS,ioos:station:USF.COMPS:TAR:1,2014-12-01T18:36:00Z,28.1560,-82.7580,57.26,1111122 
COMPS,ioos:station:USF.COMPS:TAR:1,2014-12-01T18:42:00Z,28.1560,-82.7580,57.23,1111122 
COMPS,ioos:station:USF.COMPS:TAR:1,2014-12-01T18:48:00Z,28.1560,-82.7580,58.72,1111122 
COMPS,ioos:station:USF.COMPS:TAR:1,2014-12-01T18:54:00Z,28.1560,-82.7580,59.87,1111122 
COMPS,ioos:station:USF.COMPS:TAR:1,2014-12-01T19:00:00Z,28.1560,-82.7580,60.29,1111122 
COMPS,ioos:station:USF.COMPS:TAR:1,2014-12-01T19:06:00Z,28.1560,-82.7580,60.93,1111122 
COMPS,ioos:station:USF.COMPS:TAR:1,2014-12-01T19:12:00Z,28.1560,-82.7580,62.51,1111122 
COMPS,ioos:station:USF.COMPS:TAR:1,2014-12-01T19:18:00Z,28.1560,-82.7580,62.28,1111122 
COMPS,ioos:station:USF.COMPS:TAR:1,2014-12-01T19:24:00Z,28.1560,-82.7580,60.89,1111122 
COMPS,ioos:station:USF.COMPS:TAR:1,2014-12-01T19:30:00Z,28.1560,-82.7580,61.73,1111122 
COMPS,ioos:station:USF.COMPS:TAR:1,2014-12-01T19:36:00Z,28.1560,-82.7580,60.81,1111122 
COMPS,ioos:station:USF.COMPS:TAR:1,2014-12-01T19:42:00Z,28.1560,-82.7580,61.18,1111122 
COMPS,ioos:station:USF.COMPS:TAR:1,2014-12-01T19:48:00Z,28.1560,-82.7580,62.74,1111122 
COMPS,ioos:station:USF.COMPS:TAR:1,2014-12-01T19:54:00Z,28.1560,-82.7580,64.49,1111122 
COMPS,ioos:station:USF.COMPS:TAR:1,2014-12-01T20:00:00Z,28.1560,-82.7580,64.73,1111122 
COMPS,ioos:station:USF.COMPS:TAR:1,2014-12-01T20:06:00Z,28.1560,-82.7580,64.69,1111122 
COMPS,ioos:station:USF.COMPS:TAR:1,2014-12-01T20:12:00Z,28.1560,-82.7580,64.64,1111122 
COMPS,ioos:station:USF.COMPS:TAR:1,2014-12-01T20:18:00Z,28.1560,-82.7580,64.58,1111122 
COMPS,ioos:station:USF.COMPS:TAR:1,2014-12-01T20:24:00Z,28.1560,-82.7580,64.83,1111122 
COMPS,ioos:station:USF.COMPS:TAR:1,2014-12-01T20:30:00Z,28.1560,-82.7580,64.29,1111122 
COMPS,ioos:station:USF.COMPS:TAR:1,2014-12-01T20:36:00Z,28.1560,-82.7580,65.24,1111122 
COMPS,ioos:station:USF.COMPS:TAR:1,2014-12-01T20:42:00Z,28.1560,-82.7580,65.4,1111122 
COMPS,ioos:station:USF.COMPS:TAR:1,2014-12-01T20:48:00Z,28.1560,-82.7580,65.96,1111122 
COMPS,ioos:station:USF.COMPS:TAR:1,2014-12-01T20:54:00Z,28.1560,-82.7580,65.11,1111122 
COMPS,ioos:station:USF.COMPS:TAR:1,2014-12-01T21:00:00Z,28.1560,-82.7580,65.14,1111122 
COMPS,ioos:station:USF.COMPS:TAR:1,2014-12-01T21:06:00Z,28.1560,-82.7580,64.59,1111122 
COMPS,ioos:station:USF.COMPS:TAR:1,2014-12-01T21:12:00Z,28.1560,-82.7580,64.74,1111122 
COMPS,ioos:station:USF.COMPS:TAR:1,2014-12-01T21:18:00Z,28.1560,-82.7580,64.52,1111122 
COMPS,ioos:station:USF.COMPS:TAR:1,2014-12-01T21:24:00Z,28.1560,-82.7580,65.11,1111122 
COMPS,ioos:station:USF.COMPS:TAR:1,2014-12-01T21:30:00Z,28.1560,-82.7580,64.94,1111122 
COMPS,ioos:station:USF.COMPS:TAR:1,2014-12-01T21:36:00Z,28.1560,-82.7580,64.82,1111122 
COMPS,ioos:station:USF.COMPS:TAR:1,2014-12-01T21:42:00Z,28.1560,-82.7580,64.8,1111122 
COMPS,ioos:station:USF.COMPS:TAR:1,2014-12-01T21:48:00Z,28.1560,-82.7580,65.01,1111122 
COMPS,ioos:station:USF.COMPS:TAR:1,2014-12-01T21:54:00Z,28.1560,-82.7580,65.65,1111122 
COMPS,ioos:station:USF.COMPS:TAR:1,2014-12-01T22:00:00Z,28.1560,-82.7580,65.65,1111122 
COMPS,ioos:station:USF.COMPS:TAR:1,2014-12-01T22:06:00Z,28.1560,-82.7580,65.68,1111122 
COMPS,ioos:station:USF.COMPS:TAR:1,2014-12-01T22:12:00Z,28.1560,-82.7580,65.71,1111122 
COMPS,ioos:station:USF.COMPS:TAR:1,2014-12-01T22:18:00Z,28.1560,-82.7580,65.8,1111122 
COMPS,ioos:station:USF.COMPS:TAR:1,2014-12-01T22:24:00Z,28.1560,-82.7580,66.11,1111122 
COMPS,ioos:station:USF.COMPS:TAR:1,2014-12-01T22:30:00Z,28.1560,-82.7580,66.86,1111122 
COMPS,ioos:station:USF.COMPS:TAR:1,2014-12-01T22:36:00Z,28.1560,-82.7580,67.45,1111122 
COMPS,ioos:station:USF.COMPS:TAR:1,2014-12-01T22:42:00Z,28.1560,-82.7580,68.12,1111122 
COMPS,ioos:station:USF.COMPS:TAR:1,2014-12-01T22:48:00Z,28.1560,-82.7580,68.92,1111122 
COMPS,ioos:station:USF.COMPS:TAR:1,2014-12-01T22:54:00Z,28.1560,-82.7580,69.82,1111122 
COMPS,ioos:station:USF.COMPS:TAR:1,2014-12-01T23:00:00Z,28.1560,-82.7580,70.58,1111122 
COMPS,ioos:station:USF.COMPS:TAR:1,2014-12-01T23:06:00Z,28.1560,-82.7580,71.42,1111122 
COMPS,ioos:station:USF.COMPS:TAR:1,2014-12-01T23:12:00Z,28.1560,-82.7580,72.07,1111122 
COMPS,ioos:station:USF.COMPS:TAR:1,2014-12-01T23:18:00Z,28.1560,-82.7580,72.97,1111122 
COMPS,ioos:station:USF.COMPS:TAR:1,2014-12-01T23:24:00Z,28.1560,-82.7580,73.7,1111122 
COMPS,ioos:station:USF.COMPS:TAR:1,2014-12-01T23:30:00Z,28.1560,-82.7580,74.26,1111122 
COMPS,ioos:station:USF.COMPS:TAR:1,2014-12-01T23:36:00Z,28.1560,-82.7580,74.44,1111122 
COMPS,ioos:station:USF.COMPS:TAR:1,2014-12-01T23:42:00Z,28.1560,-82.7580,74.7,1111122 
COMPS,ioos:station:USF.COMPS:TAR:1,2014-12-01T23:48:00Z,28.1560,-82.7580,75.22,1111122 
COMPS,ioos:station:USF.COMPS:TAR:1,2014-12-01T23:54:00Z,28.1560,-82.7580,75.58,1111122 
COMPS,ioos:station:USF.COMPS:TAR:1,2014-12-02T00:00:00Z,28.1560,-82.7580,76.21,1111122 
COMPS,ioos:station:USF.COMPS:TAR:1,2014-12-02T00:06:00Z,28.1560,-82.7580,76.63,1111122 
COMPS,ioos:station:USF.COMPS:TAR:1,2014-12-02T00:12:00Z,28.1560,-82.7580,77.04,1111122 
COMPS,ioos:station:USF.COMPS:TAR:1,2014-12-02T00:18:00Z,28.1560,-82.7580,77.1,1111122 
COMPS,ioos:station:USF.COMPS:TAR:1,2014-12-02T00:24:00Z,28.1560,-82.7580,77.45,1111122 
COMPS,ioos:station:USF.COMPS:TAR:1,2014-12-02T00:30:00Z,28.1560,-82.7580,77.87,1111122 
COMPS,ioos:station:USF.COMPS:TAR:1,2014-12-02T00:36:00Z,28.1560,-82.7580,78.62,1111122 
COMPS,ioos:station:USF.COMPS:TAR:1,2014-12-02T00:42:00Z,28.1560,-82.7580,79.17,1111122 
COMPS,ioos:station:USF.COMPS:TAR:1,2014-12-02T00:48:00Z,28.1560,-82.7580,79.67,1111122 
COMPS,ioos:station:USF.COMPS:TAR:1,2014-12-02T00:54:00Z,28.1560,-82.7580,80.03,1111122 
COMPS,ioos:station:USF.COMPS:TAR:1,2014-12-02T01:00:00Z,28.1560,-82.7580,80.47,1111122 
COMPS,ioos:station:USF.COMPS:TAR:1,2014-12-02T01:06:00Z,28.1560,-82.7580,80.79,1111122 
COMPS,ioos:station:USF.COMPS:TAR:1,2014-12-02T01:12:00Z,28.1560,-82.7580,81.21,1111122 
COMPS,ioos:station:USF.COMPS:TAR:1,2014-12-02T01:18:00Z,28.1560,-82.7580,81.25,1111122 
COMPS,ioos:station:USF.COMPS:TAR:1,2014-12-02T01:24:00Z,28.1560,-82.7580,81.48,1111122 
COMPS,ioos:station:USF.COMPS:TAR:1,2014-12-02T01:30:00Z,28.1560,-82.7580,81.48,1111122 
COMPS,ioos:station:USF.COMPS:TAR:1,2014-12-02T01:36:00Z,28.1560,-82.7580,81.54,1111122 
COMPS,ioos:station:USF.COMPS:TAR:1,2014-12-02T01:42:00Z,28.1560,-82.7580,81.45,1111122 
COMPS,ioos:station:USF.COMPS:TAR:1,2014-12-02T01:48:00Z,28.1560,-82.7580,81.14,1111122 
COMPS,ioos:station:USF.COMPS:TAR:1,2014-12-02T01:54:00Z,28.1560,-82.7580,80.84,1111122 
COMPS,ioos:station:USF.COMPS:TAR:1,2014-12-02T02:00:00Z,28.1560,-82.7580,80.32,1111122 
COMPS,ioos:station:USF.COMPS:TAR:1,2014-12-02T02:06:00Z,28.1560,-82.7580,79.79,1111122 
COMPS,ioos:station:USF.COMPS:TAR:1,2014-12-02T02:12:00Z,28.1560,-82.7580,79.27,1111122 
COMPS,ioos:station:USF.COMPS:TAR:1,2014-12-02T02:18:00Z,28.1560,-82.7580,78.44,1111122 
COMPS,ioos:station:USF.COMPS:TAR:1,2014-12-02T02:24:00Z,28.1560,-82.7580,77.97,1111122 
COMPS,ioos:station:USF.COMPS:TAR:1,2014-12-02T02:30:00Z,28.1560,-82.7580,77.97,1111122 
COMPS,ioos:station:USF.COMPS:TAR:1,2014-12-02T02:36:00Z,28.1560,-82.7580,78.32,1111122 
COMPS,ioos:station:USF.COMPS:TAR:1,2014-12-02T02:42:00Z,28.1560,-82.7580,78.75,1111122 
COMPS,ioos:station:USF.COMPS:TAR:1,2014-12-02T02:48:00Z,28.1560,-82.7580,79.27,1111122 
COMPS,ioos:station:USF.COMPS:TAR:1,2014-12-02T02:54:00Z,28.1560,-82.7580,79.9,1111122 
COMPS,ioos:station:USF.COMPS:TAR:1,2014-12-02T03:00:00Z,28.1560,-82.7580,81.45,1111122 
COMPS,ioos:station:USF.COMPS:TAR:1,2014-12-02T03:06:00Z,28.1560,-82.7580,83.53,1111122 